Location: Biltmore Gardens
(41.6070°N, 83.4666°W)
Time: 14:13:46
(UTC+00:00)

Cosmos 972 Rocket - Pass Details

Date: 14 July 2020
Orbit: 713 x 1151 km, 75.8° (Epoch: 12 August)

Event Time Altitude Azimuth Distance (km) Brightness Sun altitude
Rises 05:46:58 0° 344° (NNW) 3,607 8.6 -26.8°
Reaches altitude 10° 05:49:37 10° 346° (NNW) 2,590 7.6 -26.8°
Maximum altitude 05:55:30 75° 72° (ENE) 862 4.2 -26.7°
Enters shadow 05:55:57 70° 113° (ESE) 876 4.1 -26.7°
